CST,Max TemperatureF,Mean TemperatureF,Min TemperatureF,Max Dew PointF,MeanDew PointF,Min DewpointF,Max Humidity, Mean Humidity, Min Humidity, Max Sea Level PressureIn, Mean Sea Level PressureIn, Min Sea Level PressureIn, Max VisibilityMiles, Mean VisibilityMiles, Min VisibilityMiles, Max Wind SpeedMPH, Mean Wind SpeedMPH, Max Gust SpeedMPH,PrecipitationIn, CloudCover, Events, WindDirDegrees
2013-6-1,86,79,72,75,73,71,94,83,59,29.93,29.86,29.82,12,7,1,10,5,,1.02,6,Fog-Rain-Thunderstorm,227
2013-6-2,86,79,72,74,73,72,94,78,59,29.91,29.86,29.79,12,7,1,10,4,,0.00,6,,240
2013-6-3,90,82,73,75,73,70,94,77,51,29.85,29.81,29.77,12,8,6,13,4,,0.20,6,Rain-Thunderstorm,242
2013-6-4,88,80,73,77,73,70,94,80,58,29.88,29.83,29.78,12,6,1,14,4,,0.02,6,Rain-Thunderstorm,250
2013-6-5,86,80,73,75,74,72,94,79,58,29.87,29.82,29.77,12,6,0,12,5,,0.02,7,Fog-Thunderstorm,238
2013-6-6,88,78,69,74,73,68,94,75,51,29.86,29.81,29.75,12,8,6,10,4,,0.01,6,Thunderstorm,222
2013-6-7,92,82,72,77,74,70,94,71,43,29.87,29.81,29.74,12,8,6,12,4,,0.00,6,,185
2013-6-8,91,82,74,76,72,68,95,72,46,29.88,29.80,29.75,12,6,1,15,4,,0.00,6,,76
2013-6-9,88,80,72,73,72,70,94,73,54,29.87,29.81,29.76,12,8,6,9,5,,0.00,7,Rain,110
2013-6-10,92,82,73,75,72,68,94,70,49,29.89,29.83,29.78,12,7,6,9,4,,0.00,7,,167
2013-6-11,91,82,72,74,72,70,91,67,43,29.92,29.85,29.80,12,8,6,10,4,,0.00,7,,83
2013-6-12,89,81,73,75,72,70,94,68,51,29.91,29.86,29.82,12,8,6,12,5,,0.00,7,,122
2013-6-13,89,80,71,76,72,69,94,74,55,29.91,29.85,29.82,12,8,6,10,6,,0.00,6,Thunderstorm,157
2013-6-14,88,80,71,87,74,71,94,76,56,29.87,29.82,29.77,12,6,0,9,3,,0.00,5,Fog-Rain-Thunderstorm,211
2013-6-15,89,81,73,74,72,71,89,70,49,29.89,29.82,29.77,12,8,6,14,7,,0.04,6,,112
2013-6-16,90,82,73,75,73,72,95,75,47,29.86,29.80,29.76,12,6,0,12,6,,0.00,6,Fog-Rain-Thunderstorm,196
2013-6-17,93,84,74,76,74,72,94,72,47,29.82,29.79,29.74,12,8,6,12,5,,0.00,3,Thunderstorm,166
2013-6-18,84,79,74,76,74,73,94,79,68,29.83,29.80,29.76,12,8,6,7,4,,0.01,7,Rain,144
2013-6-19,85,80,74,75,73,72,89,76,64,29.82,29.78,29.73,12,8,6,14,5,,0.00,7,,82
2013-6-20,90,82,74,76,73,70,94,71,55,29.86,29.80,29.73,12,8,6,12,5,,0.00,6,Rain,114
2013-6-21,94,82,71,75,72,68,94,73,41,29.88,29.83,29.78,12,8,6,15,6,,0.04,6,Rain,144
2013-6-22,90,81,72,73,69,66,94,59,39,29.86,29.81,29.76,12,8,6,17,7,,0.00,7,,85
2013-6-23,92,84,76,70,68,64,74,57,35,29.88,29.84,29.79,12,8,6,18,10,,0.00,6,,77
2013-6-24,89,81,73,73,72,70,83,68,56,29.91,29.87,29.83,12,8,6,14,6,,0.00,6,,133
2013-6-25,91,82,74,73,69,66,89,62,40,29.94,29.88,29.84,12,8,6,15,7,,0.00,7,Rain,67
2013-6-26,89,78,68,73,70,67,88,66,52,29.90,29.86,29.81,12,7,6,13,5,,0.00,6,,104
2013-6-27,90,82,73,73,69,64,94,62,33,29.89,29.84,29.79,12,8,6,14,7,,0.00,7,Rain,113
2013-6-28,91,80,70,73,71,66,94,73,40,29.89,29.84,29.79,12,6,1,14,6,,1.73,6,Rain-Thunderstorm,95
2013-6-29,86,79,72,73,72,70,89,75,58,29.91,29.86,29.81,12,7,6,10,4,,0.00,6,,211
2013-6-30,85,79,73,74,73,72,94,84,70,29.91,29.86,29.82,12,8,6,10,5,,0.12,6,Rain,114